sat.trackr.live / text

‹ back to catalog

STARLINK-3646

NORAD 51785 · 2022-017T

PAYLOAD ACTIVE UNKNOWN

§ Identity

Operator
Country
US
Launch date
2022-02-25
Launch site
AFWTR
Launch vehicle
Mass (kg)
RCS (m²)

Purposes: comms

External: N2YO · Heavens-Above · Gunter

§ Orbital elements

Epoch: 2026-05-25T00:21:35.953344Z

Period
95.44 min
Inclination
53.2134°
Eccentricity
0.0001410
Mean motion
15.08831304 rev/d
Perigee alt
538.8 km
Apogee alt
540.7 km
Semi-major
6,917.9 km
B*
-2.4758e-5
RAAN
356.4543°
Arg perigee
98.6889°
Mean anomaly
261.4263°
Rev number
23,394

§ Raw data

STARLINK-36461 51785U 22017T   26145.01499946 -.00000682  00000+0 -24758-4 0  99952 51785  53.2134 356.4543 0001410  98.6889 261.4263 15.08831304233948

JSON: /api/v1/satellites/51785 · /tle

For live sub-satellite position, see the globe view (requires WebGL).

§ Visibility from observer

Set your observer location to see the next 7 days of passes ≥ 10°. The values pass through the URL so the page stays shareable.

No JS? Fill the form by hand. The geolocation button needs JavaScript.